Location: Schommer Observatory
(40.5200°N, 74.4500°W)
Time: 00:20:44
(UTC-05:00)

OTV 5 (USA 277) - Pass Details

Date: 10 October 2017
Orbit: 404 x 417 km, 43.0° (Epoch: 07 September)

Event Time Altitude Azimuth Distance (km) Brightness Sun altitude
Rises 19:42:47 0° 239° (WSW) 2,346 ? -15.6°
Reaches altitude 10° 19:44:55 10° 235° (SW) 1,486 ? -16.0°
Maximum altitude 19:48:12 55° 156° (SSE) 505 ? -16.6°
Enters shadow 19:48:51 45° 112° (ESE) 576 ? -16.7°
